GW4777 Weather Reports


Display with metric or nautical units.
time (UTC)temp
F
wind
direction
speed
MPH
gust
MPH
rain 1hr
in
rain 24hr
in
rain mn
in
humidity
%
barometer
mb
20260506044700 51 78 0.0 0.0 0.00 0.00 0.00 73 1012.9
20260506044157 51 55 0.0 1.0 0.00 0.00 0.00 72 1012.5
20260506043654 52 79 0.0 1.0 0.00 0.00 0.00 72 1012.5
20260506043152 52 99 0.0 0.0 0.00 0.00 0.00 72 1012.1
20260506042651 52 73 0.0 0.0 0.00 0.00 0.00 72 1012.2
20260506042149 52 63 1.0 1.0 0.00 0.00 0.00 72 1012.5
20260506041652 51 98 0.0 0.0 0.00 0.00 0.00 72 1012.2
20260506041143 51 95 0.0 0.0 0.00 0.00 0.00 71 1012.3
20260506040641 52 67 0.0 0.0 0.00 0.00 0.00 71 1012.2
20260506040138 52 120 0.0 0.0 0.00 0.00 0.00 71 1012.2
20260506035635 52 85 0.0 0.0 0.00 0.00 0.00 71 1012.1
20260506035131 51 77 0.0 0.0 0.00 0.00 0.00 71 1012.0
20260506034628 52 66 0.0 1.0 0.00 0.00 0.00 71 1011.9
20260506034125 52 89 0.0 0.0 0.00 0.00 0.00 71 1011.8
20260506033623 52 80 0.0 0.0 0.00 0.00 0.00 70 1011.8
20260506033120 52 62 0.0 1.0 0.00 0.00 0.00 70 1011.6
20260506032617 52 87 0.0 1.0 0.00 0.00 0.00 70 1011.3
20260506032114 52 88 0.0 1.0 0.00 0.00 0.00 69 1011.3
20260506031611 52 79 0.0 0.0 0.00 0.00 0.00 69 1011.3
20260506031108 52 80 0.0 0.0 0.00 0.00 0.00 69 1011.1
20260506030606 52 61 0.0 1.0 0.00 0.00 0.00 68 1011.2
20260506030103 53 75 0.0 1.0 0.00 0.00 0.00 68 1011.3
20260506025600 53 50 0.0 1.0 0.00 0.00 0.00 68 1011.1
20260506025056 53 72 0.0 0.0 0.00 0.00 0.00 68 1011.2
20260506024553 53 71 0.0 0.0 0.00 0.00 0.00 68 1011.1
20260506024050 53 63 0.0 0.0 0.00 0.00 0.00 67 1010.9
20260506023545 53 78 1.0 1.0 0.00 0.00 0.00 67 1011.1
20260506023043 53 69 0.0 0.0 0.00 0.00 0.00 67 1011.0
20260506022541 53 77 0.0 0.0 0.00 0.00 0.00 67 1011.0
20260506022038 54 69 0.0 1.0 0.00 0.00 0.00 67 1010.9
20260506021535 54 62 0.0 0.0 0.00 0.00 0.00 67 1010.8
20260506021033 54 70 0.0 0.0 0.00 0.00 0.00 67 1010.7
20260506020530 54 84 0.0 0.0 0.00 0.00 0.00 66 1010.6
20260506020027 54 67 0.0 1.0 0.00 0.00 0.00 66 1010.5
20260506015525 54 56 0.0 1.0 0.00 0.00 0.00 66 1010.7
20260506015021 55 125 0.0 1.0 0.00 0.00 0.00 65 1010.4
20260506014519 55 77 0.0 0.0 0.00 0.00 0.00 65 1010.3
20260506014015 55 78 1.0 1.0 0.00 0.00 0.00 65 1010.3
20260506013513 55 62 0.0 0.0 0.00 0.00 0.00 66 1010.1
20260506013009 55 78 0.0 1.0 0.00 0.00 0.00 66 1010.1
20260506012505 55 69 0.0 1.0 0.00 0.00 0.00 66 1010.0
20260506012002 55 76 0.0 0.0 0.00 0.00 0.00 66 1009.8
20260506011500 55 75 0.0 1.0 0.00 0.00 0.00 65 1009.9
20260506010956 55 96 0.0 1.0 0.00 0.00 0.00 65 1009.7
20260506010455 56 72 0.0 0.0 0.00 0.00 0.00 65 1009.7
20260506005951 56 72 0.0 1.0 0.00 0.00 0.00 65 1009.5
20260506005449 56 70 0.0 0.0 0.00 0.00 0.00 65 1009.4
20260506004950 56 57 0.0 0.0 0.00 0.00 0.00 65 1009.2
20260506004448 56 97 0.0 1.0 0.00 0.00 0.00 65 1009.2
20260506003944 56 56 1.0 1.0 0.00 0.00 0.00 64 1009.2
20260506003441 57 62 0.0 1.0 0.00 0.00 0.00 64 1009.1
20260506002937 57 87 0.0 0.0 0.00 0.00 0.00 64 1009.0
20260506002433 57 66 0.0 0.0 0.00 0.00 0.00 64 1009.0
20260506001928 57 76 0.0 0.0 0.00 0.00 0.00 65 1009.0
20260506001426 57 54 0.0 1.0 0.00 0.00 0.00 64 1008.9
20260506000923 57 90 0.0 1.0 0.00 0.00 0.00 64 1008.9
20260506000423 57 64 0.0 1.0 0.00 0.00 0.00 64 1008.9
20260505235917 57 85 0.0 1.0 0.00 0.00 0.00 64 1008.9
20260505235415 57 65 1.0 1.0 0.00 0.00 0.00 64 1008.7
20260505234912 57 76 0.0 0.0 0.00 0.00 0.00 63 1008.9
20260505234409 57 63 0.0 1.0 0.00 0.00 0.00 63 1008.9
20260505233906 58 134 1.0 1.0 0.00 0.00 0.00 63 1009.0
20260505233404 58 70 0.0 0.0 0.00 0.00 0.00 62 1008.6
20260505232901 59 68 0.0 1.0 0.00 0.00 0.00 62 1008.7
20260505232359 59 57 1.0 1.0 0.00 0.00 0.00 61 1008.4
20260505231855 59 66 0.0 0.0 0.00 0.00 0.00 61 1008.5
20260505231353 59 78 1.0 1.0 0.00 0.00 0.00 61 1008.5
20260505230851 59 63 1.0 1.0 0.00 0.00 0.00 61 1008.6
20260505230348 59 70 1.0 2.0 0.00 0.00 0.00 61 1008.4
20260505225844 60 101 1.0 1.0 0.00 0.00 0.00 61 1008.2
20260505225342 60 65 1.0 1.0 0.00 0.00 0.00 61 1008.8
20260505224836 60 118 0.0 1.0 0.00 0.00 0.00 61 1008.5
20260505224335 60 78 0.0 1.0 0.00 0.00 0.00 60 1008.8
20260505223831 61 76 3.0 3.0 0.00 0.00 0.00 59 1008.8
20260505223329 61 109 1.0 2.0 0.00 0.00 0.00 60 1009.0
20260505222824 61 80 1.0 1.0 0.00 0.00 0.00 59 1008.6
20260505222320 62 112 2.0 3.0 0.00 0.00 0.00 58 1009.0
20260505221818 62 96 2.0 2.0 0.00 0.00 0.00 58 1008.9
20260505221314 63 81 2.0 3.0 0.00 0.00 0.00 58 1008.8
20260505220812 63 93 1.0 2.0 0.00 0.00 0.00 58 1008.5
20260505220309 64 107 1.0 1.0 0.00 0.00 0.00 57 1008.4
20260505215807 64 85 1.0 2.0 0.00 0.00 0.00 57 1008.5
20260505215305 64 68 0.0 1.0 0.00 0.00 0.00 57 1008.7
20260505214802 65 159 0.0 1.0 0.00 0.00 0.00 56 1008.5
20260505214259 66 85 1.0 1.0 0.00 0.00 0.00 55 1008.4
20260505213756 66 89 2.0 3.0 0.00 0.00 0.00 54 1008.5
20260505213254 66 70 1.0 1.0 0.00 0.00 0.00 54 1008.6
20260505212749 66 79 3.0 4.0 0.00 0.00 0.00 53 1008.6
20260505212247 66 18 4.0 6.0 0.00 0.00 0.00 53 1008.6
20260505211743 67 91 2.0 2.0 0.00 0.00 0.00 52 1008.7
20260505211241 67 134 3.0 3.0 0.00 0.00 0.00 52 1008.6
20260505210737 67 16 3.0 4.0 0.00 0.00 0.00 51 1008.7
20260505210234 68 40 4.0 4.0 0.00 0.00 0.00 51 1008.5
20260505205731 68 59 1.0 1.0 0.00 0.00 0.00 51 1008.4
20260505205230 69 81 1.0 2.0 0.00 0.00 0.00 49 1008.5
20260505204726 69 93 2.0 2.0 0.00 0.00 0.00 49 1008.3
20260505204224 69 110 0.0 0.0 0.00 0.00 0.00 50 1008.2
20260505203721 69 130 2.0 3.0 0.00 0.00 0.00 48 1008.2
20260505203218 69 73 1.0 2.0 0.00 0.00 0.00 48 1008.3
20260505202713 69 103 1.0 2.0 0.00 0.00 0.00 48 1008.2
20260505202210 69 102 1.0 2.0 0.00 0.00 0.00 49 1008.1
20260505201706 69 66 0.0 1.0 0.00 0.00 0.00 48 1008.0
20260505201204 70 105 2.0 3.0 0.00 0.00 0.00 47 1007.8
20260505200702 69 10 2.0 2.0 0.00 0.00 0.00 48 1007.9
20260505200159 69 340 3.0 4.0 0.00 0.00 0.00 48 1008.1
20260505195654 69 27 1.0 2.0 0.00 0.00 0.00 49 1007.9
20260505195152 69 119 1.0 1.0 0.00 0.00 0.00 48 1008.2
20260505194649 68 184 2.0 3.0 0.00 0.00 0.00 49 1008.2
20260505194145 68 70 1.0 2.0 0.00 0.00 0.00 48 1008.4
20260505193642 69 159 2.0 2.0 0.00 0.00 0.00 47 1008.2
20260505193139 69 103 2.0 3.0 0.00 0.00 0.00 47 1007.8
20260505192638 69 253 4.0 6.0 0.00 0.00 0.00 47 1008.0
20260505192134 69 74 2.0 3.0 0.00 0.00 0.00 49 1008.0
20260505191633 68 112 2.0 3.0 0.00 0.00 0.00 49 1008.1
20260505191131 69 75 2.0 3.0 0.00 0.00 0.00 48 1008.0
20260505190626 69 6 5.0 7.0 0.00 0.00 0.00 48 1007.9
20260505190121 70 74 2.0 2.0 0.00 0.00 0.00 46 1007.9
20260505185618 71 185 4.0 4.0 0.00 0.00 0.00 47 1007.9
20260505185114 71 89 1.0 1.0 0.00 0.00 0.00 47 1008.1
20260505184611 71 71 1.0 1.0 0.00 0.00 0.00 46 1008.3
20260505184108 71 115 0.0 0.0 0.00 0.00 0.00 47 1008.0
20260505183605 70 120 4.0 7.0 0.00 0.00 0.00 47 1007.7
20260505183103 69 52 0.0 1.0 0.00 0.00 0.00 50 1007.7
20260505182558 69 95 2.0 2.0 0.00 0.00 0.00 51 1007.9
20260505182055 69 134 3.0 4.0 0.00 0.00 0.00 50 1007.7
20260505181552 68 66 2.0 2.0 0.00 0.00 0.00 50 1007.7
20260505181049 69 154 4.0 7.0 0.00 0.00 0.00 51 1007.9
20260505180545 69 68 2.0 3.0 0.00 0.00 0.00 50 1008.0
20260505180043 69 65 2.0 3.0 0.00 0.00 0.00 49 1008.2
20260505175543 69 81 2.0 3.0 0.00 0.00 0.00 50 1008.2
20260505175041 69 72 1.0 1.0 0.00 0.00 0.00 51 1008.3
20260505174537 69 109 2.0 4.0 0.00 0.00 0.00 51 1007.8
20260505174033 69 95 1.0 2.0 0.00 0.00 0.00 51 1007.9
20260505173530 69 124 2.0 3.0 0.00 0.00 0.00 51 1008.0
20260505173027 70 15 2.0 3.0 0.00 0.00 0.00 50 1008.0
20260505172525 69 116 0.0 1.0 0.00 0.00 0.00 52 1007.7
20260505172021 69 112 1.0 1.0 0.00 0.00 0.00 53 1007.9
20260505171516 69 323 2.0 3.0 0.00 0.00 0.00 53 1007.6
20260505171014 70 70 1.0 1.0 0.00 0.00 0.00 53 1007.0
20260505170510 70 64 3.0 3.0 0.00 0.00 0.00 53 1007.2
20260505170006 69 347 5.0 7.0 0.00 0.00 0.00 53 1007.3
20260505165502 69 104 1.0 2.0 0.00 0.00 0.00 53 1007.3
20260505164957 69 87 0.0 1.0 0.00 0.00 0.00 55 1007.2
20260505164454 69 314 2.0 6.0 0.00 0.00 0.00 55 1006.9
20260505163952 69 120 2.0 4.0 0.00 0.00 0.00 55 1006.7
20260505163450 69 82 2.0 6.0 0.00 0.00 0.00 56 1006.6
20260505162949 68 253 1.0 2.0 0.00 0.00 0.00 58 1006.7
20260505162445 68 126 0.0 1.0 0.00 0.00 0.00 58 1006.2
20260505161942 68 83 3.0 6.0 0.00 0.00 0.00 58 1006.3
20260505161438 69 94 2.0 2.0 0.00 0.00 0.00 57 1006.2
20260505160936 69 276 1.0 2.0 0.00 0.00 0.00 58 1005.8
20260505160434 69 104 2.0 3.0 0.00 0.00 0.00 58 1005.8
20260505152910 72 154 2.0 2.0 0.00 0.00 0.00 58 1005.0
20260505152408 73 327 5.0 6.0 0.00 0.00 0.00 58 1005.0
20260505151907 73 120 3.0 4.0 0.00 0.00 0.00 59 1005.2
20260505151404 73 68 4.0 8.0 0.00 0.00 0.00 57 1004.8
20260505150901 72 353 3.0 4.0 0.00 0.00 0.00 58 1004.5
20260505150359 71 87 1.0 1.0 0.00 0.00 0.00 58 1004.8
20260505140328 76 128 2.0 3.0 0.00 0.00 0.00 29 1003.5
20260505130252 70 157 1.0 1.0 0.00 0.00 0.00 58 1002.0
20260505124742 69 127 1.0 2.0 0.00 0.00 0.00 61 1001.9
20260505124239 69 195 1.0 1.0 0.00 0.00 0.00 62 1001.7
20260505123734 69 153 0.0 0.0 0.00 0.00 0.00 62 1001.6
20260505123231 69 134 0.0 0.0 0.00 0.00 0.00 62 1001.5
20260505122728 69 133 1.0 1.0 0.00 0.00 0.00 63 1001.3
20260505122225 68 141 0.0 1.0 0.00 0.00 0.00 63 1001.4
20260505121722 68 171 1.0 1.0 0.00 0.00 0.00 63 1001.3
20260505121218 68 137 0.0 1.0 0.00 0.00 0.00 63 1001.5
20260505120715 69 128 1.0 2.0 0.00 0.00 0.00 63 1001.3
20260505120211 69 153 0.0 1.0 0.00 0.00 0.00 62 1001.3
20260505115704 69 85 1.0 1.0 0.00 0.00 0.00 62 1001.4
20260505115202 69 210 2.0 2.0 0.00 0.00 0.00 61 1001.4
20260505114659 70 145 1.0 2.0 0.00 0.00 0.00 61 1001.1
20260505114155 70 141 1.0 1.0 0.00 0.00 0.00 60 1000.8
20260505113652 70 140 1.0 1.0 0.00 0.00 0.00 60 1000.8
20260505113149 70 204 2.0 3.0 0.00 0.00 0.00 60 1000.6
20260505112645 70 282 1.0 2.0 0.00 0.00 0.00 60 1000.5
20260505112144 70 168 1.0 1.0 0.00 0.00 0.00 60 1000.5
20260505111643 70 138 1.0 1.0 0.00 0.00 0.00 60 1000.6
20260505111139 70 133 1.0 1.0 0.00 0.00 0.00 60 1000.5
20260505110635 70 107 1.0 1.0 0.00 0.00 0.00 60 1000.5
20260505110132 70 123 1.0 1.0 0.00 0.00 0.00 61 1000.6
20260505102108 69 184 1.0 1.0 0.00 0.00 0.00 62 1000.2
20260505101606 70 148 1.0 1.0 0.00 0.00 0.00 62 1000.4
20260505101102 70 114 0.0 0.0 0.00 0.00 0.00 62 1000.1
20260505100559 70 139 1.0 1.0 0.00 0.00 0.00 61 1000.4
20260505100056 70 127 1.0 1.0 0.00 0.00 0.00 61 1000.1
20260505095552 70 156 1.0 1.0 0.00 0.00 0.00 61 1000.1
20260505095049 70 238 2.0 2.0 0.00 0.00 0.00 61 1000.1
20260505094545 70 216 1.0 2.0 0.00 0.00 0.00 61 1000.3
20260505094041 71 137 0.0 0.0 0.00 0.00 0.00 60 1000.0
20260505093538 71 103 1.0 2.0 0.00 0.00 0.00 60 999.9
20260505093036 71 153 2.0 3.0 0.00 0.00 0.00 59 1000.0
20260505092533 71 130 1.0 2.0 0.00 0.00 0.00 59 1000.1
20260505092031 71 209 1.0 2.0 0.00 0.00 0.00 59 999.9
20260505091527 71 186 1.0 2.0 0.00 0.00 0.00 58 1000.2
20260505091026 71 171 1.0 1.0 0.00 0.00 0.00 58 1000.2
20260505090524 71 111 2.0 2.0 0.00 0.00 0.00 58 1000.4
20260505090021 72 140 1.0 2.0 0.00 0.00 0.00 58 1000.3
20260505085519 72 131 0.0 1.0 0.00 0.00 0.00 58 1000.4
20260505085017 72 210 0.0 0.0 0.00 0.00 0.00 58 1000.3
20260505084515 72 155 0.0 1.0 0.00 0.00 0.00 57 1000.4
20260505084013 72 303 0.0 1.0 0.00 0.00 0.00 57 1000.4
20260505083509 72 161 1.0 1.0 0.00 0.00 0.00 57 1000.4
20260505083006 72 91 1.0 1.0 0.00 0.00 0.00 57 1000.3
20260505082502 72 127 0.0 1.0 0.00 0.00 0.00 57 1000.4
20260505081959 72 156 2.0 2.0 0.00 0.00 0.00 57 1000.3
20260505081455 72 177 0.0 1.0 0.00 0.00 0.00 57 1000.2
20260505080952 72 139 1.0 2.0 0.00 0.00 0.00 57 1000.3
20260505080448 72 232 1.0 3.0 0.00 0.00 0.00 57 1000.4
20260505075943 72 123 0.0 0.0 0.00 0.00 0.00 57 1000.4
20260505075440 72 132 1.0 2.0 0.00 0.00 0.00 57 1000.5
20260505074938 72 194 1.0 2.0 0.00 0.00 0.00 57 1000.5
20260505074436 72 73 1.0 1.0 0.00 0.00 0.00 58 1000.5
20260505073932 72 133 3.0 3.0 0.00 0.00 0.00 57 1000.6
20260505073430 72 201 2.0 3.0 0.00 0.00 0.00 58 1000.5
20260505072927 71 176 2.0 2.0 0.00 0.00 0.00 58 1000.7
20260505072423 72 127 0.0 1.0 0.00 0.00 0.00 58 1000.7
20260505071919 72 157 2.0 2.0 0.00 0.00 0.00 59 1000.7
20260505071416 72 203 1.0 2.0 0.00 0.00 0.00 59 1001.0
20260505070914 72 166 1.0 2.0 0.00 0.00 0.00 59 1000.7
20260505070410 72 107 2.0 2.0 0.00 0.00 0.00 59 1000.9
20260505065905 73 132 2.0 2.0 0.00 0.00 0.00 58 1000.9
20260505065402 73 162 2.0 3.0 0.00 0.00 0.00 58 1001.0
20260505064859 73 170 1.0 2.0 0.00 0.00 0.00 59 1000.9
20260505064356 73 175 0.0 1.0 0.00 0.00 0.00 59 1001.3
20260505063855 73 131 2.0 3.0 0.00 0.00 0.00 59 1001.1
20260505063355 73 113 1.0 1.0 0.00 0.00 0.00 60 1001.4
20260505062852 73 183 1.0 1.0 0.00 0.00 0.00 60 1001.3
20260505062349 73 145 1.0 1.0 0.00 0.00 0.00 60 1001.3
20260505061846 73 237 2.0 3.0 0.00 0.00 0.00 60 1001.3
20260505061344 73 221 2.0 3.0 0.00 0.00 0.00 60 1001.4
20260505060842 73 146 2.0 4.0 0.00 0.00 0.00 61 1001.4
20260505060338 74 238 2.0 2.0 0.00 0.00 0.00 60 1001.4
20260505055834 74 139 1.0 1.0 0.00 0.00 0.00 60 1001.5
20260505055330 74 152 3.0 7.0 0.00 0.00 0.00 60 1001.5
20260505054828 74 136 0.0 1.0 0.00 0.00 0.00 60 1001.3
20260505054325 75 143 1.0 1.0 0.00 0.00 0.00 60 1001.4
20260505053823 75 121 1.0 1.0 0.00 0.00 0.00 61 1001.3
20260505053320 75 135 1.0 1.0 0.00 0.00 0.00 61 1001.4
20260505052816 75 165 2.0 2.0 0.00 0.00 0.00 61 1001.4
20260505052314 75 218 3.0 3.0 0.00 0.00 0.00 61 1001.5
20260505051810 75 114 2.0 2.0 0.00 0.00 0.00 60 1001.7
20260505051308 75 160 0.0 0.0 0.00 0.00 0.00 59 1001.8
20260505050806 75 165 1.0 2.0 0.00 0.00 0.00 59 1001.5
20260505050305 75 66 1.0 1.0 0.00 0.00 0.00 59 1001.5